La Paz, Mexico

10:23 PM MDT on September 19, 2017 (GMT -0600)
Gen Manuel Marquez De Leon

Weather History for MMLP - November, 2012

Change the Weather History Date:

Thursday, November 29, 2012

  Actual Average Record
Temperature  
Mean Temperature 72 °F -  
Max Temperature 84 °F 76 °F 92 °F (2014)
Min Temperature 59 °F 53 °F 46 °F (2010)
Cooling Degree Days 6    
Growing Degree Days 22 (Base 50)    
Moisture  
Dew Point 59 °F    
Average Humidity 63    
Maximum Humidity 88    
Minimum Humidity 41    
Precipitation  
Precipitation 0.00 in - - ()
Sea Level Pressure  
Sea Level Pressure 30.06 in    
Wind  
Wind Speed 5 mph ()    
Max Wind Speed 14 mph    
Max Gust Speed -    
Visibility 11.1 miles    
Events      
Averages and records for this station are not official NWS values.
T = Trace of Precipitation, MM = Missing Value Source: Averaged Metar Reports

Daily Weather History Graph

Daily Weather History Graph

Search for Another Location

Airport or City:

Trip Planner

Search our weather history database for the weather conditions in past years. The results will help you decide how hot, cold, wet, or windy it might be!

Date:

Astronomy

Nov. 29, 2012 Rise Set
Actual Time 6:46 AM MST 5:33 PM MST
Civil Twilight 6:22 AM MST 5:57 PM MST
Nautical Twilight 5:54 AM MST 6:25 PM MST
Astronomical Twilight 5:26 AM MST 6:53 PM MST
Moon 6:39 PM MST (11/29) 7:35 AM MST (11/29)
Length of Visible Light 11h 35m
Length of Day
10h 46m
Full, 99% of the Moon is Illuminated
Nov 29
Full
Dec 6
Last Quarter
Dec 13
New
Dec 19
First Quarter
Dec 28
Full

Hourly Weather History & Observations

Time (MST) Temp. Dew Point Humidity Pressure Visibility Wind Dir Wind Speed Gust Speed Precip Events Conditions
5:40 AM 55.4 °F 50.0 °F 82% 30.07 in 10.0 mi South 4.6 mph - N/A   Partly Cloudy
6:42 AM 55.4 °F 50.0 °F 82% 30.07 in 10.0 mi Calm Calm - N/A   Mostly Cloudy
7:42 AM 55.4 °F 51.8 °F 88% 30.14 in 10.0 mi Calm Calm - N/A   Mostly Cloudy
7:50 AM 62 °F 56 °F 73% 30.08 in 12 mi South 2.2 mph - -   Clear
8:45 AM 64.4 °F 57.2 °F 77% 30.10 in 10.0 mi SE 3.5 mph - N/A   Scattered Clouds
9:45 AM 75.2 °F 60.8 °F 61% 30.11 in 10.0 mi North 6.9 mph - N/A   Scattered Clouds
10:40 AM 77.0 °F 62.6 °F 61% 30.15 in 12.0 mi NNW 8.1 mph - N/A   Scattered Clouds
10:50 AM 82 °F 62 °F 41% 30.09 in 19 mi North 4.5 mph - -   Clear
11:46 AM 78.8 °F 59.0 °F 51% 30.07 in 12.0 mi North 11.5 mph - N/A   Mostly Cloudy
12:43 PM 78.8 °F 59.0 °F 51% 30.04 in 12.0 mi NW 10.4 mph - N/A   Mostly Cloudy
1:40 PM 78.8 °F 62.6 °F 57% 30.06 in 12.0 mi North 13.8 mph - N/A   Mostly Cloudy
1:50 PM 82 °F 63 °F 42% 30.01 in 19 mi North 6.7 mph - -   Clear
2:40 PM 78.8 °F 62.6 °F 57% 30.00 in 12.0 mi North 8.1 mph - N/A   Mostly Cloudy
3:42 PM 78.8 °F 60.8 °F 54% 30.00 in 12.0 mi NNW 11.5 mph - N/A   Scattered Clouds
4:42 PM 78.8 °F 59.0 °F 51% 30.04 in 12.0 mi NNE 11.5 mph - N/A   Scattered Clouds
4:45 PM 79 °F 62 °F 45% 29.99 in 19 mi North 8.9 mph - -   Clear
5:43 PM 73.4 °F 59.0 °F 61% 30.01 in 10.0 mi NE 9.2 mph - N/A   Scattered Clouds
6:47 PM 73.4 °F 59.0 °F 61% 30.03 in 10.0 mi NE 6.9 mph - N/A   Scattered Clouds
7:44 PM 69.8 °F 59.0 °F 68% 30.09 in 10.0 mi Calm Calm - N/A   Scattered Clouds
7:50 PM 73 °F 63 °F 62% 30.01 in 2 mi ENE 2.2 mph - -  
8:45 PM 66.2 °F 57.2 °F 73% 30.05 in 10.0 mi Calm Calm - N/A   Scattered Clouds
9:42 PM 62.6 °F 55.4 °F 77% 30.05 in 10.0 mi South 3.5 mph - N/A   Partly Cloudy
10:42 PM 60.8 °F 55.4 °F 82% 30.12 in 10.0 mi SSW 3.5 mph - N/A   Partly Cloudy
10:50 PM 69 °F 60 °F 66% 30.05 in 2 mi SSE 2.2 mph - -   Clear